Regional Weather Roundup
Issued by NWS Lake Charles, LA

Home | Current Version | Previous Version | Text Only | Print | Product List | Glossary On
Versions: 1 2 3 4 5 6 7 8 9 10 11 12 13 14 15 16 17 18 19 20 21 22 23 24 25 26 27 28 29 30 31 32 33 34 35 36 37 38 39 40 41 42 43 44 45 46 47 48 49 50
693
ASUS44 KLCH 190810
RWRLCH
REGIONAL WEATHER ROUNDUP
NATIONAL WEATHER SERVICE LAKE CHARLES LA
200 AM CST MON FEB 19 2018

Note: "fair" indicates few or no clouds below 12,000 feet with no
significant weather and/or obstructions to visibility.


ACROSS SOUTHEAST TEXAS

CITY           SKY/WX    TMP DP  RH WIND       PRES   REMARKS
BEAUMONT       FAIR      66  64  93 S15G21    30.03S
BEAUMONT CITY  CLOUDY    68  65  89 S9        30.04S
ORANGE         CLOUDY    68  68 100 S10       30.06F
JASPER         CLOUDY    68  65  91 S6        30.05S
$$

ACROSS CENTRAL LOUISIANA

CITY           SKY/WX    TMP DP  RH WIND       PRES   REMARKS
LEESVILLE      CLOUDY    67  65  93 S9G20     30.04F
FULLERTON      CLOUDY    71  66  84 VRB5      30.02F
ALEXANDRIA INT CLOUDY    66  65  96 S9        30.05S
ESLER FIELD    MOCLDY    64  64 100 S3        30.07S
DERIDDER       CLOUDY    66  65  95 SE7       30.07S
OAKDALE        CLOUDY    67  65  92 S6        30.06F
OPELOUSAS      FAIR      65  64  96 S7        30.08F
$$

ACROSS SOUTHWEST AND SOUTH CENTRAL LOUISIANA

CITY           SKY/WX    TMP DP  RH WIND       PRES   REMARKS
SULPHUR        CLOUDY    68  68 100 SE10      30.06F FOG
LAKE CHARLES   CLOUDY    68  67  96 S9        30.05F
CHENNAULT INT  CLOUDY    68  67  96 S7        30.06F
CAMERON PHI    FOG       64  64 100 SE9       30.06F VSB 0
DEQUINCY       CLOUDY    67  65  91 S10       30.06S
JENNINGS       PTSUNNY   67  66  95 SE7       30.07S
LAFAYETTE      FAIR      68  66  93 S8        30.08F
NEW IBERIA     FAIR      67  63  87 SE12      30.09F
ABBEVILLE      FAIR      67  67 100 SE10      30.08F
PATTERSON      FAIR      66  65  96 SE7       30.11S
SALT POINT       N/A     66  65  96 SE6       30.09S
$$

SELECTED SITES ACROSS THE REGION

CITY           SKY/WX    TMP DP  RH WIND       PRES   REMARKS
HOUSTON BUSH   CLOUDY    70  65  84 S14G25    29.98F
HOUSTON HOBBY  MOCLDY    68  67  96 SE13      29.99F
GALVESTON      FAIR      67  65  93 SE17      30.01F
COLLEGE STAT   CLOUDY    69  65  86 S20G25    29.94S
CONROE         CLOUDY    68  66  93 S14       29.98F
HUNTSVILLE     CLOUDY    69  63  81 S10       29.96F
LUFKIN         MOCLDY    66  62  87 SE15G22   29.98F
SHREVEPORT     CLOUDY    67  64  90 S14       30.00R
MONROE         FAIR      61  61 100 S6        30.06S
NATCHEZ MS     FAIR      63  62  97 S6        30.10S
BATON ROUGE    FAIR      64  62  93 SE6       30.10S
N.O. INTL ARPT FAIR      67  67 100 SE6       30.12S
SLIDELL        CLOUDY    68  66  93 SE5       30.12S
$$

MARINE REPORTS

STATION/POSITION TIME  SKY/WX   TEMP    WIND        PRES    VSBY
                                AIR SEA DIR/SP/G
                 (UTC)          (F)     (DEG/KT/KT) (MB)    (MI)
BUOY 30 S HIGH I 0650            63 62  160/ 10/ 12 1016.9
WVE H/P(F/S)=  2/ 6

SEA RIM ST PARK  0800            64     150/ 13/ 16 1017.3F
PORT ARTHUR      0742            65 62  160/  7/ 10 1017.3F
SABINE PASS N    0742            64 67  140/ 12/ 16 1018.6F
TEXAS POINT      NOT AVBL
CALCASIEU PASS   0742            64 63  160/ 11/ 13 1016.6F
LK CHARLES BEACH 0748            69 64              1017.2F
MARSH ISLAND     NOT AVBL
FRESH WATER LOCK 0748            67 70  120/  8/ 10 1018.6F
AMERADA PASS     0748            68 53  130/  4/  6 1019.2F
$$




USA.gov is the U.S. government's official web portal to all federal, state and local government web resources and services.